Weather History for Sparta, WI

Change the Weather History Date:

Thursday, November 22, 2012

  Actual Average Record
Temperature  
Mean Temperature 48 °F -  
Max Temperature 62 °F 38 °F 70 °F (1990)
Min Temperature 33 °F 21 °F 5 °F (1964)
Degree Days  
Heating Degree Days 18    
Moisture  
Dew Point 36 °F    
Average Humidity 58    
Maximum Humidity 75    
Minimum Humidity 42    
Precipitation  
Precipitation 0.00 in - - ()
Sea Level Pressure  
Sea Level Pressure 29.76 in    
Wind  
Wind Speed 10 mph (SW)    
Max Wind Speed 23 mph    
Max Gust Speed 37 mph    
Visibility 10 miles    
Events      
Averages and records for this station are not official NWS values.
T = Trace of Precipitation, MM = Missing Value Source: NWS Daily Summary

Daily Weather History Graph

Daily Weather History Graph

Search for Another Location

Airport:

Trip Planner

Search our weather history database for the weather conditions in past years. The results will help you decide how hot, cold, wet, or windy it might be!

Date:

Astronomy

Nov. 22, 2012 Rise Set
Actual Time 7:07 AM CST 4:30 PM CST
Civil Twilight 6:35 AM CST 5:02 PM CST
Nautical Twilight 6:00 AM CST 5:37 PM CST
Astronomical Twilight 5:25 AM CST 6:12 PM CST
Moon 1:25 PM CST (11/22) 1:17 AM CST (11/22)
Length of Visible Light 10h 26m
Length of Day
9h 23m
Waxing Gibbous, 71% of the Moon is Illuminated
Nov 22
Waxing Gibbous
Nov 28
Full
Dec 6
Last Quarter
Dec 13
New
Dec 19
First Quarter

Hourly Weather History & Observations

Time (CST) Temp. Windchill Dew Point Humidity Pressure Visibility Wind Dir Wind Speed Gust Speed Precip Events Conditions
12:15 AM 51.8 °F - 41.0 °F 67% 29.88 in 10.0 mi SSW 6.9 mph 17.3 mph N/A   Clear
12:35 AM 51.8 °F - 41.0 °F 67% 29.88 in 10.0 mi SW 6.9 mph - N/A   Clear
12:55 AM 51.8 °F - 39.2 °F 62% 29.87 in 10.0 mi SSW 6.9 mph - N/A   Clear
1:15 AM 51.8 °F - 39.2 °F 62% 29.87 in 10.0 mi SW 5.8 mph - N/A   Clear
1:35 AM 51.8 °F - 39.2 °F 62% 29.86 in 10.0 mi SW 3.5 mph - N/A   Clear
1:55 AM 51.8 °F - 39.2 °F 62% 29.85 in 10.0 mi SW 5.8 mph - N/A   Clear
2:15 AM 53.6 °F - 37.4 °F 54% 29.85 in 10.0 mi SSW 8.1 mph - N/A   Clear
2:35 AM 51.8 °F - 37.4 °F 58% 29.84 in 10.0 mi SW 4.6 mph - N/A   Clear
2:55 AM 51.8 °F - 37.4 °F 58% 29.83 in 10.0 mi SSW 5.8 mph - N/A   Clear
3:15 AM 51.8 °F - 37.4 °F 58% 29.82 in 10.0 mi SW 3.5 mph - N/A   Clear
3:35 AM 51.8 °F - 37.4 °F 58% 29.82 in 10.0 mi SSW 5.8 mph - N/A   Clear
3:55 AM 51.8 °F - 37.4 °F 58% 29.80 in 10.0 mi SSW 6.9 mph - N/A   Clear
4:15 AM 51.8 °F - 37.4 °F 58% 29.79 in 10.0 mi SSW 8.1 mph - N/A   Clear
4:35 AM 51.8 °F - 37.4 °F 58% 29.79 in 10.0 mi SSW 5.8 mph - N/A   Clear
4:55 AM 51.8 °F - 35.6 °F 54% 29.78 in 10.0 mi South 11.5 mph - N/A   Clear
5:15 AM 51.8 °F - 35.6 °F 54% 29.78 in 10.0 mi SSW 9.2 mph 16.1 mph N/A   Clear
5:35 AM 51.8 °F - 35.6 °F 54% 29.77 in 10.0 mi South 8.1 mph - N/A   Clear
5:55 AM 51.8 °F - 35.6 °F 54% 29.77 in 10.0 mi SSW 8.1 mph - N/A   Clear
6:15 AM 51.8 °F - 35.6 °F 54% 29.76 in 10.0 mi SSW 6.9 mph - N/A   Clear
6:35 AM 51.8 °F - 35.6 °F 54% 29.76 in 10.0 mi South 8.1 mph - N/A   Clear
6:55 AM 48.2 °F - 35.6 °F 62% 29.76 in 10.0 mi South 6.9 mph - N/A   Clear
7:15 AM 50.0 °F - 35.6 °F 58% 29.76 in 10.0 mi South 8.1 mph - N/A   Clear
7:35 AM 51.8 °F - 35.6 °F 54% 29.75 in 10.0 mi South 10.4 mph 16.1 mph N/A   Clear
7:55 AM 51.8 °F - 35.6 °F 54% 29.75 in 10.0 mi South 9.2 mph - N/A   Clear
8:15 AM 51.8 °F - 35.6 °F 54% 29.75 in 10.0 mi South 6.9 mph - N/A   Clear
8:35 AM 53.6 °F - 35.6 °F 51% 29.75 in 10.0 mi South 10.4 mph - N/A   Clear
8:55 AM 53.6 °F - 35.6 °F 51% 29.74 in 10.0 mi SSW 8.1 mph 17.3 mph N/A   Clear
9:15 AM 55.4 °F - 35.6 °F 47% 29.74 in 10.0 mi South 13.8 mph 17.3 mph N/A   Clear
9:35 AM 55.4 °F - 35.6 °F 47% 29.73 in 10.0 mi South 13.8 mph 19.6 mph N/A   Clear
9:55 AM 57.2 °F - 37.4 °F 48% 29.73 in 10.0 mi SSW 11.5 mph 20.7 mph N/A   Clear
10:15 AM 57.2 °F - 37.4 °F 48% 29.73 in 10.0 mi SSW 12.7 mph 19.6 mph N/A   Clear
10:35 AM 59.0 °F - 37.4 °F 45% 29.72 in 10.0 mi SSW 15.0 mph 20.7 mph N/A   Clear
10:55 AM 59.0 °F - 37.4 °F 45% 29.71 in 10.0 mi SSW 13.8 mph 20.7 mph N/A   Clear
11:15 AM 59.0 °F - 37.4 °F 45% 29.70 in 10.0 mi SSW 12.7 mph 16.1 mph N/A   Clear
11:35 AM 60.8 °F - 37.4 °F 42% 29.68 in 10.0 mi SSW 10.4 mph 18.4 mph N/A   Clear
11:55 AM 60.8 °F - 37.4 °F 42% 29.67 in 10.0 mi South 11.5 mph 19.6 mph N/A   Clear
12:15 PM 60.8 °F - 39.2 °F 45% 29.67 in 10.0 mi South 10.4 mph 16.1 mph N/A   Clear
12:35 PM 60.8 °F - 39.2 °F 45% 29.66 in 10.0 mi SSW 10.4 mph 18.4 mph N/A   Clear
12:55 PM 60.8 °F - 39.2 °F 45% 29.65 in 10.0 mi South 12.7 mph 18.4 mph N/A   Clear
1:15 PM 60.8 °F - 41.0 °F 48% 29.65 in 10.0 mi SSW 11.5 mph 18.4 mph N/A   Clear
1:35 PM 62.6 °F - 41.0 °F 45% 29.64 in 10.0 mi SSW 9.2 mph 23.0 mph N/A   Clear
1:55 PM 62.6 °F - 41.0 °F 45% 29.64 in 10.0 mi SW 11.5 mph 19.6 mph N/A   Clear
2:15 PM 62.6 °F - 41.0 °F 45% 29.64 in 10.0 mi SSW 10.4 mph 18.4 mph N/A   Clear
2:35 PM 62.6 °F - 42.8 °F 48% 29.63 in 10.0 mi SSW 8.1 mph 18.4 mph N/A   Clear
2:55 PM 60.8 °F - 42.8 °F 52% 29.65 in 10.0 mi SW 11.5 mph 18.4 mph N/A   Clear
3:15 PM 60.8 °F - 42.8 °F 52% 29.65 in 10.0 mi SW 8.1 mph - N/A   Clear
3:35 PM 60.8 °F - 42.8 °F 52% 29.65 in 10.0 mi SW 5.8 mph 17.3 mph N/A   Clear
3:55 PM 59.0 °F - 42.8 °F 55% 29.65 in 10.0 mi SW 6.9 mph - N/A   Clear
4:15 PM 59.0 °F - 42.8 °F 55% 29.65 in 10.0 mi SW 6.9 mph - N/A   Scattered Clouds
4:35 PM 59.0 °F - 42.8 °F 55% 29.65 in 10.0 mi WSW 4.6 mph - N/A   Overcast
4:55 PM 59.0 °F - 42.8 °F 55% 29.66 in 10.0 mi WSW 9.2 mph - N/A   Overcast
5:15 PM 55.4 °F - 35.6 °F 47% 29.69 in 10.0 mi West 15.0 mph 27.6 mph N/A   Overcast
5:35 PM 51.8 °F - 35.6 °F 54% 29.70 in 10.0 mi West 13.8 mph 23.0 mph N/A   Mostly Cloudy
5:55 PM 50.0 °F - 35.6 °F 58% 29.71 in 10.0 mi West 19.6 mph 24.2 mph N/A   Clear
6:15 PM 46.4 °F 39.5 °F 35.6 °F 66% 29.74 in 10.0 mi West 17.3 mph 26.5 mph N/A   Clear
6:35 PM 44.6 °F 36.9 °F 33.8 °F 66% 29.76 in 10.0 mi West 18.4 mph 27.6 mph N/A   Clear
6:55 PM 42.8 °F 34.0 °F 33.8 °F 70% 29.78 in 10.0 mi West 20.7 mph 27.6 mph N/A   Scattered Clouds
7:15 PM 41.0 °F 31.9 °F 32.0 °F 70% 29.79 in 10.0 mi West 19.6 mph 31.1 mph N/A   Mostly Cloudy
7:35 PM 41.0 °F 32.5 °F 32.0 °F 70% 29.81 in 10.0 mi West 17.3 mph 36.8 mph N/A   Mostly Cloudy
7:55 PM 41.0 °F 32.5 °F 32.0 °F 70% 29.81 in 10.0 mi WNW 17.3 mph 25.3 mph N/A   Overcast
8:15 PM 39.2 °F 28.7 °F 32.0 °F 75% 29.83 in 10.0 mi West 23.0 mph 31.1 mph N/A   Overcast
8:35 PM 37.4 °F 27.5 °F 30.2 °F 75% 29.85 in 10.0 mi West 18.4 mph 25.3 mph N/A   Overcast
8:55 PM 37.4 °F 28.2 °F 30.2 °F 75% 29.85 in 10.0 mi West 16.1 mph 26.5 mph N/A   Mostly Cloudy
9:15 PM 35.6 °F 25.5 °F 28.4 °F 75% 29.85 in 10.0 mi West 17.3 mph 26.5 mph N/A   Overcast
9:35 PM 35.6 °F 26.6 °F 28.4 °F 75% 29.86 in 10.0 mi West 13.8 mph 27.6 mph N/A   Overcast
9:55 PM 35.6 °F 24.0 °F 28.4 °F 75% 29.87 in 10.0 mi West 23.0 mph 31.1 mph N/A   Overcast
10:15 PM 35.6 °F 25.9 °F 26.6 °F 70% 29.87 in 10.0 mi West 16.1 mph 24.2 mph N/A   Overcast
10:35 PM 33.8 °F 22.2 °F 26.6 °F 75% 29.87 in 10.0 mi West 20.7 mph 27.6 mph N/A   Overcast
10:55 PM 33.8 °F 24.3 °F 24.8 °F 70% 29.87 in 10.0 mi West 13.8 mph 24.2 mph N/A   Overcast
11:15 PM 33.8 °F 22.8 °F 24.8 °F 70% 29.87 in 10.0 mi West 18.4 mph 24.2 mph N/A   Overcast
11:35 PM 33.8 °F 22.5 °F 24.8 °F 70% 29.87 in 10.0 mi West 19.6 mph 27.6 mph N/A   Overcast
11:55 PM 33.8 °F 23.5 °F 23.0 °F 65% 29.87 in 10.0 mi West 16.1 mph 25.3 mph N/A   Overcast